Volver al catálogo

STARLINK-35772

ActivoComunicacionesVLEO
NORAD 66976·PAYLOAD·🇺🇸 United States

Lanzado Dec 8, 2025 desde Cape Canaveral Space Force Station

Loading…

Próximos Pases (próximas 24 horas)

TLE

ActualizadoSource: CelesTrak SupGP

Época: Sep 15, 2026, 03:25 UTC

1 66976C 25288T   26258.14284722 -.00006985  00000+0 -25298-3 0  2588
2 66976  43.0038  33.5421 0001384 267.4669  36.7522 15.27584212    11

Sigue STARLINK-35772 en tiempo real con AllMySat

Download on the App Store